Location: Huberhof
(49.2050°N, 7.4980°E)
Time: 05:33:43
(UTC+00:00)

YAOGAN 1 - Pass Details

Date: 29 October 2020
Orbit: 618 x 620 km, 97.9° (Epoch: 25 November)

Event Time Altitude Azimuth Distance (km) Brightness Sun altitude
Rises 18:51:43 0° 192° (SSW) 2,885 6.0 -26.3°
Reaches altitude 10° 18:54:07 10° 204° (SSW) 1,985 5.3 -26.7°
Maximum altitude 18:57:54 29° 265° (W) 1,138 4.4 -27.3°
Drops below altitude 10° 19:01:43 10° 326° (NW) 1,998 5.7 -27.9°
Sets 19:04:09 0° 338° (NNW) 2,910 6.5 -28.3°
